Regional Weather Roundup
Issued by NWS

Home | Current Version | Previous Version | Text Only | Print | Product List | Glossary Off
Versions: 1 2 3 4 5 6 7 8 9 10 11 12 13 14 15 16 17 18 19 20 21 22 23 24 25 26 27 28 29 30 31 32 33 34 35 36 37 38 39 40 41 42 43 44 45 46 47 48 49 50

000
ASUS43 KMPX 221301
RWRMN
WEATHER ROUNDUP FOR MINNESOTA
NATIONAL WEATHER SERVICE TWIN CITIES/CHANHASSEN MN
800 AM CDT SAT JUL 22 2017


NOTE: "FAIR" INDICATES FEW OR NO CLOUDS BELOW 12,000 FEET WITH NO
SIGNIFICANT WEATHER AND/OR OBSTRUCTIONS TO VISIBILITY. N/A MEANS
CURRENT SKY AND/OR WEATHER CONDITIONS ARE NOT AVAILABLE.

MNZ060>063-068>070-221400-
   Twin Cities Metro

CITY           SKY/WX    TMP DP  RH WIND       PRES   REMARKS
TWIN CITIES    CLOUDY    72  66  81 N9        29.85R
ST PAUL        CLOUDY    70  68  93 NW7       29.85R
CRYSTAL        CLOUDY    69  63  81 N13       29.87R
BLAINE         CLOUDY    70  68  94 N12G21    29.89R
LAKEVILLE      CLOUDY    70  70 100 N5        29.84R
EDEN PRAIRIE   CLOUDY    72  67  84 N9        29.84R
SOUTH ST PAUL  CLOUDY    71  68  90 N6        29.84R
LAKE ELMO      FAIR      68  64  88 N6        29.86R
$$
MNZ001>005-007-008-013>017-022>024-027-028-221400-
   Northwest Minnesota

CITY           SKY/WX    TMP DP  RH WIND       PRES   REMARKS
BEMIDJI        CLOUDY    67  63  87 S5        29.83R
HALLOCK        SUNNY     68  66  94 W9        29.78R
ROSEAU         CLOUDY    64  59  82 S6        29.78S HAZE
WARROAD        CLOUDY    63  59  88 CALM      29.78F FOG
THIEF RVR FALL CLOUDY    66  66 100 SW13      29.81R FOG
CROOKSTON      SUNNY     64  64 100 SW9       29.81S
FOSSTON        SUNNY     66  64  94 S6        29.82R
DETROIT LAKES  SUNNY     68  64  88 SW3       29.85R
MOORHEAD       SUNNY     66  64  94 W6        29.84S
PARK RAPIDS    MOSUNNY   67  64  90 SW5       29.82S
MAHNOMEN       FAIR      66  64  91 SW7       29.82R
$$
MNZ006-009>011-018-025>026-221400-
   North Central Minnesota

CITY           SKY/WX    TMP DP  RH WIND       PRES   REMARKS
BAUDETTE       FOG       63  63 100 SE6       29.79S VSB 1/2
FLAG ISLAND    PTSUNNY   66  61  82 SE8       29.77F
INTL FALLS     MOSUNNY   62  59  90 SE3       29.82R
BIG FORK       CLOUDY    64  63  94 CALM      29.83R FOG
LONGVILLE      CLOUDY    64  64 100 CALM      29.82S
GRAND RAPIDS   CLOUDY    64  63  96 S12       29.85S
CRANE LAKE     CLOUDY    55  55 100 CALM      29.84S
ORR            PTSUNNY   57  55  94 CALM      29.81R
COOK           CLOUDY    57  55  94 CALM      29.84R
WALKER         FAIR      64  62  94 CALM      29.83R
$$
MNZ012-019>021-037-221400-
   Northeast Minnesota

CITY           SKY/WX    TMP DP  RH WIND       PRES   REMARKS
DULUTH         CLOUDY    61  60  97 S3        29.85S
ELY            PTSUNNY   57  55  94 CALM      29.85R
HIBBING        FOG       60  60 100 SW6       29.85R VSB 1/2
EVELETH        CLOUDY    60  57  90 CALM      29.85R
DULUTH HARBOR  CLOUDY    63  59  88 CALM      29.85F
TWO HARBORS    CLOUDY    63  57  82 CALM      29.84R
SILVER BAY     CLOUDY    63  55  77 E5        29.83R
GRAND MARAIS     N/A     58  53  84 NE8       29.83R
G MARAIS ARPRT PTSUNNY   61  52  72 N8        29.87R
$$
MNZ029>031-032-039>041-046>048-054>057-064-221400-
   West Central Minnesota

CITY           SKY/WX    TMP DP  RH WIND       PRES   REMARKS
FERGUS FALLS   SUNNY     70  68  94 CALM      29.83R
WHEATON        SUNNY     68  64  88 SE9       29.87S
MORRIS         MOSUNNY   72  64  78 SE8       29.86R
ALEXANDRIA     MOSUNNY   69  67  93 CALM      29.86F
ELBOW LAKE     FAIR      67  65  93 SE9       29.85S
WADENA         PTSUNNY   64  64 100 SE5       29.83S
GLENWOOD       CLOUDY    66  64  94 E6        29.86F
APPLETON       MOSUNNY   72  64  78 E8        29.87R
BENSON         MOSUNNY   73  64  73 SE6       29.88F
ORTONVILLE     MOSUNNY   70  64  83 E7        29.88R
MADISON        CLOUDY    73  73 100 CALM      29.89R
WILLMAR        PTSUNNY   73  70  88 N3        29.90S
$$
MNZ033>034-036-042>043-049>051-058-059-221400-
   Central Minnesota

CITY           SKY/WX    TMP DP  RH WIND       PRES   REMARKS
ST CLOUD       CLOUDY    68  67  96 VRB3      29.88F
SAUK CENTRE    FAIR      67  66  94 SE5       29.85F
PAYNESVILLE    CLOUDY    71  67  88 NE5       29.88F
AITKIN         RAIN      64  63  94 S15G21    29.78F
PINE RIVER     CLOUDY    64  64 100 CALM      29.84F
BRAINERD       CLOUDY    66  65  96 S6        29.81F
STAPLES        CLOUDY    64  64 100 S8        29.82F
LONG PRAIRIE   FAIR      66  64  94 CALM      29.85F
LITTLE FALLS   RAIN      64  63  94 S9        29.83F
LITCHFIELD     PTSUNNY   72  70  94 CALM      29.90R
BUFFALO        CLOUDY    68  64  86 N9        29.91R
MAPLE LAKE     CLOUDY    68  67  94 N8        29.91R
HUTCHINSON     MOSUNNY   72  70  92 NW12G22   29.90R
$$
MNZ037-044-045-052-053-221400-
   East Central Minnesota

CITY           SKY/WX    TMP DP  RH WIND       PRES   REMARKS
PRINCETON      CLOUDY    66  64  94 CALM      29.89F
MORA           CLOUDY    64  64 100 SW3       29.90S
CAMBRIDGE      CLOUDY    66  64  94 CALM      29.88S
RUSH CITY      CLOUDY    65  64  96 CALM      29.89R
MOOSE LAKE     CLOUDY    61  61 100 CALM      29.85S FOG
HINCKLEY       PTSUNNY   64  64 100 CALM      29.87F
CLOQUET        FOG       61  57  88 SE3       29.85F VSB 1/2
MCGREGOR       CLOUDY    64  63  94 CALM      29.83F
$$
MNZ071>073-080-081-089-090-097-098-221400-
   Southwest Minnesota

CITY           SKY/WX    TMP DP  RH WIND       PRES   REMARKS
MONTEVIDEO     MOSUNNY   73  72  94 E8        29.88S
GRANITE FALLS  MOSUNNY   74  70  87 N3        29.91R
CANBY          PTSUNNY   72  68  88 CALM      29.91R
MARSHALL       SUNNY     71  69  93 N7        29.90R
REDWOOD FALLS  MOSUNNY   71  67  87 NW10G17   29.89R
OLIVIA         SUNNY     72  68  88 N9        29.88R
PIPESTONE      SUNNY     72  66  83 N5        29.91R
WINDOM         CLOUDY    72  70  94 NW7       29.89R FOG
WORTHINGTON    CLOUDY    72  70  93 NW8       29.90R
JACKSON        CLOUDY    72  70  94 NW5       29.88R FOG
SLAYTON        SUNNY     69  64  83 N3        29.91R HAZE
$$
MNZ065>067-074>077-082>085-091>093-221400-
   South Central Minnesota

CITY           SKY/WX    TMP DP  RH WIND       PRES   REMARKS
MANKATO        CLOUDY    70  68  93 NW8       29.86R
NEW ULM        CLOUDY    70  68  94 NW12      29.86R
ST JAMES       CLOUDY    70  70 100 NW7       29.87R FOG
FAIRMONT       CLOUDY    71  69  93 NW6       29.86R
GLENCOE        MOSUNNY   71  71  98 N14       29.89R
FARIBAULT      CLOUDY    70  68  94 CALM      29.85R
OWATONNA       CLOUDY    70  68  94 N6        29.85R FOG
WASECA         CLOUDY    70  68  94 W5        29.86R FOG
ALBERT LEA     CLOUDY    70  68  94 NW5       29.84R FOG
$$
MNZ078>079-086>088-094>096-221400-
   Southeast Minnesota

CITY           SKY/WX    TMP DP  RH WIND       PRES   REMARKS
ROCHESTER      FOG       69  69 100 NW7       29.84R VSB 1/4
RED WING       CLOUDY    72  66  83 NE3       29.81R
STANTON        CLOUDY    70  68  93 CALM      29.82R
DODGE CENTER   FOG       68  66  94 CALM      29.83R VSB 3/4
WINONA         CLOUDY    70  68  94 N5        29.81R
AUSTIN         CLOUDY    70  68  94 CALM      29.83R FOG
PRESTON        FOG       68  67  96 E3        29.81F VSB 1/2
$$
ABBREVIATIONS USED IN REMARKS
   TC - TEMPERATURES IN CELSIUS
  WCI - WIND CHILL INDEX
   HX - HEAT INDEX
  VSB - VISIBILITY
$$



USA.gov is the U.S. government's official web portal to all federal, state and local government web resources and services.